Big Bear City, CA

1:11 AM PDT on June 20, 2018 (GMT -0700)
Big Bear City

Weather History for KL35 - August, 2017

Change the Weather History Date:

Sunday, August 13, 2017

  Actual Average (KBUO) Record (KBUO)
Temperature  
Mean Temperature 59 °F -  
Max Temperature 77 °F 92 °F 98 °F (1996)
Min Temperature 41 °F 61 °F 55 °F (1997)
Degree Days  
Heating Degree Days 6    
Growing Degree Days 9 (Base 50)    
Moisture  
Dew Point 26 °F    
Average Humidity 34    
Maximum Humidity 65    
Minimum Humidity 7    
Precipitation  
Precipitation 0.00 in - - ()
Sea Level Pressure  
Sea Level Pressure 30.23 in    
Wind  
Wind Speed 4 mph (WSW)    
Max Wind Speed 15 mph    
Max Gust Speed 24 mph    
Visibility 10 miles    
Events      
Averages and records for this station are not official NWS values.
T = Trace of Precipitation, MM = Missing Value Source: NWS Daily Summary

Daily Weather History Graph

Daily Weather History Graph

Search for Another Location

Airport or City:

Astronomy

Aug. 13, 2017 Rise Set
Actual Time 6:07 AM PDT 7:36 PM PDT
Civil Twilight 5:40 AM PDT 8:03 PM PDT
Nautical Twilight 5:08 AM PDT 8:34 PM PDT
Astronomical Twilight 4:35 AM PDT 9:08 PM PDT
Moon 11:30 PM PDT (8/13) 11:56 AM PDT (8/13)
Length of Visible Light 14h 22m
Length of Day
13h 29m
Waning Gibbous, 64% of the Moon is Illuminated
Aug 13
Waning Gibbous
Aug 14
Last Quarter
Aug 21
New
Aug 29
First Quarter
Sep 6
Full

Hourly Weather History & Observations

Time (PDT) Temp. Windchill Dew Point Humidity Pressure Visibility Wind Dir Wind Speed Gust Speed Precip Events Conditions
12:15 AM 51.8 °F - 33.8 °F 50% 30.26 in 10.0 mi WSW 3.5 mph - N/A   Clear
12:35 AM 51.8 °F - 33.8 °F 50% 30.25 in 10.0 mi Calm Calm - N/A   Clear
12:55 AM 53.6 °F - 32.0 °F 44% 30.25 in 10.0 mi Calm Calm - N/A   Clear
1:15 AM 51.8 °F - 32.0 °F 47% 30.25 in 10.0 mi Calm Calm - N/A   Clear
1:35 AM 51.8 °F - 33.8 °F 50% 30.24 in 10.0 mi Calm Calm - N/A   Clear
1:55 AM 51.8 °F - 33.8 °F 50% 30.23 in 10.0 mi SW 3.5 mph - N/A   Clear
2:15 AM 53.6 °F - 32.0 °F 44% 30.24 in 10.0 mi WSW 4.6 mph - N/A   Clear
2:35 AM 51.8 °F - 32.0 °F 47% 30.23 in 10.0 mi Calm Calm - N/A   Clear
2:55 AM 50.0 °F - 32.0 °F 50% 30.23 in 10.0 mi Calm Calm - N/A   Clear
3:15 AM 48.2 °F - 32.0 °F 54% 30.23 in 10.0 mi Calm Calm - N/A   Clear
3:35 AM 46.4 °F - 32.0 °F 57% 30.23 in 10.0 mi Calm Calm - N/A   Clear
3:55 AM 46.4 °F - 32.0 °F 57% 30.23 in 10.0 mi Calm Calm - N/A   Clear
4:15 AM 44.6 °F - 30.2 °F 57% 30.23 in 10.0 mi Calm Calm - N/A   Clear
4:35 AM 44.6 °F - 30.2 °F 57% 30.23 in 10.0 mi Calm Calm - N/A   Clear
4:55 AM 42.8 °F - 30.2 °F 61% 30.23 in 10.0 mi Calm Calm - N/A   Clear
5:15 AM 41.0 °F 39.0 °F 30.2 °F 65% 30.23 in 10.0 mi West 3.5 mph - N/A   Clear
5:35 AM 42.8 °F - 30.2 °F 61% 30.23 in 10.0 mi Calm Calm - N/A   Clear
5:55 AM 41.0 °F - 26.6 °F 57% 30.23 in 10.0 mi Calm Calm - N/A   Clear
6:15 AM 41.0 °F - 26.6 °F 57% 30.24 in 10.0 mi Calm Calm - N/A   Clear
6:35 AM 42.8 °F - 28.4 °F 57% 30.24 in 10.0 mi Calm Calm - N/A   Clear
6:55 AM 44.6 °F - 30.2 °F 57% 30.25 in 10.0 mi Calm Calm - N/A   Clear
7:15 AM 48.2 °F - 28.4 °F 46% 30.24 in 10.0 mi Calm Calm - N/A   Clear
7:35 AM 51.8 °F - 30.2 °F 44% 30.25 in 10.0 mi Calm Calm - N/A   Clear
7:55 AM 55.4 °F - 32.0 °F 41% 30.25 in 10.0 mi Calm Calm - N/A   Clear
8:15 AM 60.8 °F - 33.8 °F 36% 30.25 in 10.0 mi Calm Calm - N/A   Clear
8:35 AM 66.2 °F - 30.2 °F 26% 30.25 in 10.0 mi Calm Calm - N/A   Clear
8:55 AM 68.0 °F - 21.2 °F 17% 30.25 in 10.0 mi Calm Calm - N/A   Clear
9:15 AM 69.8 °F - 14.0 °F 12% 30.25 in 10.0 mi West 10.4 mph - N/A   Clear
9:35 AM 71.6 °F - 15.8 °F 12% 30.26 in 10.0 mi West 10.4 mph - N/A   Clear
9:55 AM 71.6 °F - 12.2 °F 10% 30.26 in 10.0 mi SSW 4.6 mph - N/A   Clear
10:15 AM 71.6 °F - 10.4 °F 9% 30.26 in 10.0 mi WSW 9.2 mph - N/A   Clear
10:35 AM 73.4 °F - 10.4 °F 9% 30.27 in 10.0 mi SW 3.5 mph - N/A   Clear
10:55 AM 73.4 °F - 8.6 °F 8% 30.27 in 10.0 mi SW 9.2 mph 16.1 mph N/A   Clear
11:15 AM 73.4 °F - 8.6 °F 8% 30.26 in 10.0 mi WSW 10.4 mph 17.3 mph N/A   Clear
11:35 AM 77.0 °F - 8.6 °F 7% 30.26 in 10.0 mi West 15.0 mph 24.2 mph N/A   Clear
11:55 AM 77.0 °F - 8.6 °F 7% 30.26 in 10.0 mi WSW 9.2 mph 17.3 mph N/A   Clear
12:15 PM 75.2 °F - 5.0 °F 7% 30.25 in 10.0 mi West 15.0 mph 20.7 mph N/A   Clear
12:35 PM 77.0 °F - 8.6 °F 7% 30.26 in 10.0 mi West 8.1 mph 20.7 mph N/A   Clear
12:55 PM 75.2 °F - 6.8 °F 7% 30.26 in 10.0 mi WSW 9.2 mph 17.3 mph N/A   Clear
1:15 PM 75.2 °F - 6.8 °F 7% 30.25 in 10.0 mi West 10.4 mph 17.3 mph N/A   Clear
1:35 PM 77.0 °F - 14.0 °F 9% 30.25 in 10.0 mi SW 8.1 mph 18.4 mph N/A   Clear
1:55 PM 77.0 °F - 10.4 °F 8% 30.25 in 10.0 mi SW 5.8 mph 17.3 mph N/A   Clear
2:15 PM 75.2 °F - 12.2 °F 9% 30.24 in 10.0 mi West 11.5 mph 19.6 mph N/A   Clear
2:35 PM 77.0 °F - 12.2 °F 9% 30.23 in 10.0 mi SW 4.6 mph - N/A   Clear
2:55 PM 77.0 °F - 6.8 °F 7% 30.23 in 10.0 mi WSW 10.4 mph - N/A   Clear
3:15 PM 77.0 °F - 10.4 °F 8% 30.23 in 10.0 mi SW 5.8 mph - N/A   Clear
3:35 PM 75.2 °F - 21.2 °F 13% 30.23 in 10.0 mi WSW 4.6 mph 16.1 mph N/A   Clear
3:55 PM 75.2 °F - 21.2 °F 13% 30.22 in 10.0 mi WSW 9.2 mph - N/A   Clear
4:15 PM 75.2 °F - 19.4 °F 12% 30.22 in 10.0 mi WSW 10.4 mph - N/A   Clear
4:35 PM 73.4 °F - 26.6 °F 18% 30.21 in 10.0 mi SSW 6.9 mph - N/A   Clear
4:55 PM 73.4 °F - 30.2 °F 20% 30.21 in 10.0 mi West 9.2 mph 16.1 mph N/A   Clear
5:15 PM 71.6 °F - 33.8 °F 25% 30.20 in 10.0 mi WSW 9.2 mph 18.4 mph N/A   Clear
5:35 PM 71.6 °F - 35.6 °F 27% 30.20 in 10.0 mi West 11.5 mph 16.1 mph N/A   Clear
5:55 PM 69.8 °F - 37.4 °F 31% 30.19 in 10.0 mi WSW 9.2 mph - N/A   Clear
6:15 PM 69.8 °F - 37.4 °F 31% 30.19 in 10.0 mi West 9.2 mph 16.1 mph N/A   Clear
6:35 PM 68.0 °F - 39.2 °F 35% 30.19 in 10.0 mi West 11.5 mph 19.6 mph N/A   Clear
6:55 PM 64.4 °F - 41.0 °F 42% 30.18 in 10.0 mi West 11.5 mph - N/A   Clear
7:15 PM 64.4 °F - 37.4 °F 37% 30.18 in 10.0 mi West 12.7 mph 17.3 mph N/A   Clear
7:35 PM 62.6 °F - 37.4 °F 39% 30.18 in 10.0 mi West 10.4 mph - N/A   Clear
7:55 PM 60.8 °F - 41.0 °F 48% 30.18 in 10.0 mi WSW 8.1 mph - N/A   Clear
8:15 PM 59.0 °F - 41.0 °F 51% 30.19 in 10.0 mi West 8.1 mph - N/A   Clear
8:35 PM 59.0 °F - 41.0 °F 51% 30.19 in 10.0 mi West 6.9 mph - N/A   Clear
8:55 PM 59.0 °F - 41.0 °F 51% 30.20 in 10.0 mi Calm Calm - N/A   Clear
9:15 PM 57.2 °F - 35.6 °F 44% 30.20 in 10.0 mi Calm Calm - N/A   Clear
9:35 PM 57.2 °F - 32.0 °F 38% 30.20 in 10.0 mi West 4.6 mph - N/A   Clear
9:55 PM 55.4 °F - 33.8 °F 44% 30.21 in 10.0 mi Calm Calm - N/A   Clear
10:15 PM 53.6 °F - 33.8 °F 47% 30.21 in 10.0 mi Calm Calm - N/A   Clear
10:35 PM 51.8 °F - 32.0 °F 47% 30.20 in 10.0 mi Calm Calm - N/A   Clear
10:55 PM 50.0 °F - 32.0 °F 50% 30.20 in 10.0 mi Calm Calm - N/A   Clear
11:15 PM 48.2 °F - 30.2 °F 50% 30.20 in 10.0 mi Calm Calm - N/A   Clear
11:35 PM 48.2 °F - 28.4 °F 46% 30.20 in 10.0 mi SW 5.8 mph - N/A   Clear
11:55 PM 48.2 °F - 23.0 °F 37% 30.19 in 10.0 mi Calm Calm - N/A   Clear